Year,Month,Day,Hour,Minute,Value (Times are PST for temperature in C)
2010,08,23,00,00,12.70
2010,08,23,00,01,12.60
2010,08,23,00,02,12.60
2010,08,23,00,03,12.50
2010,08,23,00,04,12.40
2010,08,23,00,05,12.40
2010,08,23,00,06,12.30
2010,08,23,00,07,12.20
2010,08,23,00,08,12.20
2010,08,23,00,09,12.10
2010,08,23,00,10,12.00
2010,08,23,00,11,11.90
2010,08,23,00,12,11.80
2010,08,23,00,13,11.80
2010,08,23,00,14,11.70
2010,08,23,00,15,11.70
2010,08,23,00,16,11.60
2010,08,23,00,17,11.60
2010,08,23,00,18,11.50
2010,08,23,00,19,11.50
2010,08,23,00,20,11.40
2010,08,23,00,21,11.40
2010,08,23,00,22,11.30
2010,08,23,00,23,11.30
2010,08,23,00,24,11.30
2010,08,23,00,25,11.30
2010,08,23,00,26,11.20
2010,08,23,00,27,11.20
2010,08,23,00,28,11.20
2010,08,23,00,29,11.20
2010,08,23,00,30,11.20
2010,08,23,00,31,11.10
2010,08,23,00,32,11.10
2010,08,23,00,33,11.10
2010,08,23,00,34,11.10
2010,08,23,00,35,11.10
2010,08,23,00,36,11.10
2010,08,23,00,37,11.00
2010,08,23,00,38,11.00
2010,08,23,00,39,11.00
2010,08,23,00,40,11.00
2010,08,23,00,41,10.90
2010,08,23,00,42,10.90
2010,08,23,00,43,10.90
2010,08,23,00,44,10.90
2010,08,23,00,45,10.90
2010,08,23,00,46,10.90
2010,08,23,00,47,10.90
2010,08,23,00,48,10.90
2010,08,23,00,49,10.90
2010,08,23,00,50,10.90
2010,08,23,00,51,10.90
2010,08,23,00,52,10.90
2010,08,23,00,53,10.90
2010,08,23,00,54,10.80
2010,08,23,00,55,10.80
2010,08,23,00,56,10.80
2010,08,23,00,57,10.70
2010,08,23,00,58,10.70
2010,08,23,00,59,10.60
2010,08,23,01,00,10.60
2010,08,23,01,01,10.50
2010,08,23,01,02,10.50
2010,08,23,01,03,10.40
2010,08,23,01,04,10.40
2010,08,23,01,05,10.30
2010,08,23,01,06,10.30
2010,08,23,01,07,10.20
2010,08,23,01,08,10.20
2010,08,23,01,09,10.20
2010,08,23,01,10,10.20
2010,08,23,01,11,10.10
2010,08,23,01,12,10.10
2010,08,23,01,13,10.10
2010,08,23,01,14,10.10
2010,08,23,01,15,10.10
2010,08,23,01,16,10.00
2010,08,23,01,17,10.00
2010,08,23,01,18,10.00
2010,08,23,01,19,9.90
2010,08,23,01,20,9.90
2010,08,23,01,21,9.90
2010,08,23,01,22,9.90
2010,08,23,01,23,9.90
2010,08,23,01,24,9.90
2010,08,23,01,25,9.90
2010,08,23,01,26,9.90
2010,08,23,01,27,9.90
2010,08,23,01,28,9.90
2010,08,23,01,29,9.90
2010,08,23,01,30,9.80
2010,08,23,01,31,9.80
2010,08,23,01,32,9.80
2010,08,23,01,33,9.80
2010,08,23,01,34,9.80
2010,08,23,01,35,9.80
2010,08,23,01,36,9.80
2010,08,23,01,37,9.80
2010,08,23,01,38,9.80
2010,08,23,01,39,9.80
2010,08,23,01,40,9.70
2010,08,23,01,41,9.70
2010,08,23,01,42,9.70
2010,08,23,01,43,9.70
2010,08,23,01,44,9.70
2010,08,23,01,45,9.70
2010,08,23,01,46,9.60
2010,08,23,01,47,9.60
2010,08,23,01,48,9.60
2010,08,23,01,49,9.60
2010,08,23,01,50,9.60
2010,08,23,01,51,9.60
2010,08,23,01,52,9.60
2010,08,23,01,53,9.60
2010,08,23,01,54,9.60
2010,08,23,01,55,9.60
2010,08,23,01,56,9.50
2010,08,23,01,57,9.50
2010,08,23,01,58,9.50
2010,08,23,01,59,9.50
2010,08,23,02,00,9.50
2010,08,23,02,01,9.50
2010,08,23,02,02,9.50
2010,08,23,02,03,9.60
2010,08,23,02,04,9.60
2010,08,23,02,05,9.60
2010,08,23,02,06,9.60
2010,08,23,02,07,9.50
2010,08,23,02,08,9.50
2010,08,23,02,09,9.50
2010,08,23,02,10,9.40
2010,08,23,02,11,9.40
2010,08,23,02,12,9.40
2010,08,23,02,13,9.30
2010,08,23,02,14,9.20
2010,08,23,02,15,9.10
2010,08,23,02,16,9.10
2010,08,23,02,17,9.00
2010,08,23,02,18,9.00
2010,08,23,02,19,8.90
2010,08,23,02,20,8.90
2010,08,23,02,21,8.90
2010,08,23,02,22,8.80
2010,08,23,02,23,8.80
2010,08,23,02,24,8.80
2010,08,23,02,25,8.80
2010,08,23,02,26,8.80
2010,08,23,02,27,8.80
2010,08,23,02,28,8.80
2010,08,23,02,29,8.80
2010,08,23,02,30,8.90
2010,08,23,02,31,8.90
2010,08,23,02,32,8.90
2010,08,23,02,33,8.90
2010,08,23,02,34,8.90
2010,08,23,02,35,8.90
2010,08,23,02,36,8.90
2010,08,23,02,37,8.90
2010,08,23,02,38,8.90
2010,08,23,02,39,8.90
2010,08,23,02,40,8.90
2010,08,23,02,41,8.90
2010,08,23,02,42,8.90
2010,08,23,02,43,8.90
2010,08,23,02,44,8.80
2010,08,23,02,45,8.80
2010,08,23,02,46,8.80
2010,08,23,02,47,8.70
2010,08,23,02,48,8.70
2010,08,23,02,49,8.70
2010,08,23,02,50,8.60
2010,08,23,02,51,8.60
2010,08,23,02,52,8.60
2010,08,23,02,53,8.50
2010,08,23,02,54,8.50
2010,08,23,02,55,8.50
2010,08,23,02,56,8.50
2010,08,23,02,57,8.40
2010,08,23,02,58,8.40
2010,08,23,02,59,8.40
2010,08,23,03,00,8.40
2010,08,23,03,01,8.40
2010,08,23,03,02,8.30
2010,08,23,03,03,8.30
2010,08,23,03,04,8.30
2010,08,23,03,05,8.30
2010,08,23,03,06,8.30
2010,08,23,03,07,8.30
2010,08,23,03,08,8.30
2010,08,23,03,09,8.30
2010,08,23,03,10,8.30
2010,08,23,03,11,8.30
2010,08,23,03,12,8.30
2010,08,23,03,13,8.30
2010,08,23,03,14,8.30
2010,08,23,03,15,8.30
2010,08,23,03,16,8.30
2010,08,23,03,17,8.30
2010,08,23,03,18,8.30
2010,08,23,03,19,8.30
2010,08,23,03,20,8.30
2010,08,23,03,21,8.30
2010,08,23,03,22,8.30
2010,08,23,03,23,8.30
2010,08,23,03,24,8.30
2010,08,23,03,25,8.20
2010,08,23,03,26,8.20
2010,08,23,03,27,8.20
2010,08,23,03,28,8.20
2010,08,23,03,29,8.20
2010,08,23,03,30,8.20
2010,08,23,03,31,8.20
2010,08,23,03,32,8.20
2010,08,23,03,33,8.20
2010,08,23,03,34,8.20
2010,08,23,03,35,8.20
2010,08,23,03,36,8.20
2010,08,23,03,37,8.30
2010,08,23,03,38,8.30
2010,08,23,03,39,8.30
2010,08,23,03,40,8.30
2010,08,23,03,41,8.30
2010,08,23,03,42,8.30
2010,08,23,03,43,8.30
2010,08,23,03,44,8.30
2010,08,23,03,45,8.30
2010,08,23,03,46,8.30
2010,08,23,03,47,8.30
2010,08,23,03,48,8.20
2010,08,23,03,49,8.20
2010,08,23,03,50,8.20
2010,08,23,03,51,8.20
2010,08,23,03,52,8.10
2010,08,23,03,53,8.10
2010,08,23,03,54,8.10
2010,08,23,03,55,8.00
2010,08,23,03,56,8.00
2010,08,23,03,57,7.90
2010,08,23,03,58,7.90
2010,08,23,03,59,7.90
2010,08,23,04,00,7.80
2010,08,23,04,01,7.80
2010,08,23,04,02,7.80
2010,08,23,04,03,7.80
2010,08,23,04,04,7.70
2010,08,23,04,05,7.70
2010,08,23,04,06,7.70
2010,08,23,04,07,7.70
2010,08,23,04,08,7.70
2010,08,23,04,09,7.70
2010,08,23,04,10,7.60
2010,08,23,04,11,7.60
2010,08,23,04,12,7.60
2010,08,23,04,13,7.60
2010,08,23,04,14,7.60
2010,08,23,04,15,7.60
2010,08,23,04,16,7.60
2010,08,23,04,17,7.60
2010,08,23,04,18,7.60
2010,08,23,04,19,7.60
2010,08,23,04,20,7.60
2010,08,23,04,21,7.60
2010,08,23,04,22,7.60
2010,08,23,04,23,7.60
2010,08,23,04,24,7.60
2010,08,23,04,25,7.60
2010,08,23,04,26,7.60
2010,08,23,04,27,7.60
2010,08,23,04,28,7.60
2010,08,23,04,29,7.60
2010,08,23,04,30,7.60
2010,08,23,04,31,7.60
2010,08,23,04,32,7.60
2010,08,23,04,33,7.60
2010,08,23,04,34,7.60
2010,08,23,04,35,7.60
2010,08,23,04,36,7.60
2010,08,23,04,37,7.60
2010,08,23,04,38,7.60
2010,08,23,04,39,7.60
2010,08,23,04,40,7.60
2010,08,23,04,41,7.60
2010,08,23,04,42,7.60
2010,08,23,04,43,7.50
2010,08,23,04,44,7.50
2010,08,23,04,45,7.50
2010,08,23,04,46,7.50
2010,08,23,04,47,7.40
2010,08,23,04,48,7.40
2010,08,23,04,49,7.40
2010,08,23,04,50,7.30
2010,08,23,04,51,7.30
2010,08,23,04,52,7.30
2010,08,23,04,53,7.20
2010,08,23,04,54,7.20
2010,08,23,04,55,7.20
2010,08,23,04,56,7.30
2010,08,23,04,57,7.30
2010,08,23,04,58,7.20
2010,08,23,04,59,7.20
2010,08,23,05,00,7.20
2010,08,23,05,01,7.30
2010,08,23,05,02,7.30
2010,08,23,05,03,7.30
2010,08,23,05,04,7.30
2010,08,23,05,05,7.30
2010,08,23,05,06,7.30
2010,08,23,05,07,7.30
2010,08,23,05,08,7.30
2010,08,23,05,09,7.30
2010,08,23,05,10,7.30
2010,08,23,05,11,7.30
2010,08,23,05,12,7.30
2010,08,23,05,13,7.30
2010,08,23,05,14,7.30
2010,08,23,05,15,7.30
2010,08,23,05,16,7.30
2010,08,23,05,17,7.30
2010,08,23,05,18,7.30
2010,08,23,05,19,7.30
2010,08,23,05,20,7.30
2010,08,23,05,21,7.30
2010,08,23,05,22,7.30
2010,08,23,05,23,7.30
2010,08,23,05,24,7.20
2010,08,23,05,25,7.20
2010,08,23,05,26,7.20
2010,08,23,05,27,7.20
2010,08,23,05,28,7.20
2010,08,23,05,29,7.20
2010,08,23,05,30,7.20
2010,08,23,05,31,7.20
2010,08,23,05,32,7.20
2010,08,23,05,33,7.20
2010,08,23,05,34,7.20
2010,08,23,05,35,7.20
2010,08,23,05,36,7.20
2010,08,23,05,37,7.10
2010,08,23,05,38,7.10
2010,08,23,05,39,7.10
2010,08,23,05,40,7.10
2010,08,23,05,41,7.10
2010,08,23,05,42,7.10
2010,08,23,05,43,7.10
2010,08,23,05,44,7.10
2010,08,23,05,45,7.10
2010,08,23,05,46,7.10
2010,08,23,05,47,7.10
2010,08,23,05,48,7.10
2010,08,23,05,49,7.10
2010,08,23,05,50,7.10
2010,08,23,05,51,7.10
2010,08,23,05,52,7.10
2010,08,23,05,53,7.10
2010,08,23,05,54,7.10
2010,08,23,05,55,7.00
2010,08,23,05,56,7.00
2010,08,23,05,57,7.00
2010,08,23,05,58,6.90
2010,08,23,05,59,6.90
2010,08,23,06,00,6.90
2010,08,23,06,01,6.80
2010,08,23,06,02,6.80
2010,08,23,06,03,6.80
2010,08,23,06,04,6.80
2010,08,23,06,05,6.80
2010,08,23,06,06,6.80
2010,08,23,06,07,6.80
2010,08,23,06,08,6.80
2010,08,23,06,09,6.80
2010,08,23,06,10,6.80
2010,08,23,06,11,6.80
2010,08,23,06,12,6.80
2010,08,23,06,13,6.80
2010,08,23,06,14,6.80
2010,08,23,06,15,6.80
2010,08,23,06,16,6.80
2010,08,23,06,17,6.90
2010,08,23,06,18,6.80
2010,08,23,06,19,6.80
2010,08,23,06,20,6.80
2010,08,23,06,21,6.80
2010,08,23,06,22,6.80
2010,08,23,06,23,6.80
2010,08,23,06,24,6.80
2010,08,23,06,25,6.80
2010,08,23,06,26,6.80
2010,08,23,06,27,6.80
2010,08,23,06,28,6.80
2010,08,23,06,29,6.80
2010,08,23,06,30,6.80
2010,08,23,06,31,6.70
2010,08,23,06,32,6.70
2010,08,23,06,33,6.70
2010,08,23,06,34,6.70
2010,08,23,06,35,6.70
2010,08,23,06,36,6.70
2010,08,23,06,37,6.70
2010,08,23,06,38,6.70
2010,08,23,06,39,6.70
2010,08,23,06,40,6.70
2010,08,23,06,41,6.70
2010,08,23,06,42,6.70
2010,08,23,06,43,6.80
2010,08,23,06,44,6.80
2010,08,23,06,45,6.80
2010,08,23,06,46,6.80
2010,08,23,06,47,6.80
2010,08,23,06,48,6.80
2010,08,23,06,49,6.90
2010,08,23,06,50,6.90
2010,08,23,06,51,6.90
2010,08,23,06,52,6.90
2010,08,23,06,53,6.90
2010,08,23,06,54,6.90
2010,08,23,06,55,6.90
2010,08,23,06,56,6.90
2010,08,23,06,57,7.00
2010,08,23,06,58,7.00
2010,08,23,06,59,7.10
2010,08,23,07,00,7.10
2010,08,23,07,01,7.20
2010,08,23,07,02,7.20
2010,08,23,07,03,7.20
2010,08,23,07,04,7.30
2010,08,23,07,05,7.40
2010,08,23,07,06,7.40
2010,08,23,07,07,7.50
2010,08,23,07,08,7.50
2010,08,23,07,09,7.60
2010,08,23,07,10,7.60
2010,08,23,07,11,7.60
2010,08,23,07,12,7.60
2010,08,23,07,13,7.60
2010,08,23,07,14,7.60
2010,08,23,07,15,7.60
2010,08,23,07,16,7.60
2010,08,23,07,17,7.60
2010,08,23,07,18,7.70
2010,08,23,07,19,7.70
2010,08,23,07,20,7.70
2010,08,23,07,21,7.70
2010,08,23,07,22,7.80
2010,08,23,07,23,7.80
2010,08,23,07,24,7.80
2010,08,23,07,25,7.80
2010,08,23,07,26,7.90
2010,08,23,07,27,7.90
2010,08,23,07,28,8.00
2010,08,23,07,29,8.00
2010,08,23,07,30,8.10
2010,08,23,07,31,8.10
2010,08,23,07,32,8.20
2010,08,23,07,33,8.30
2010,08,23,07,34,8.40
2010,08,23,07,35,8.50
2010,08,23,07,36,8.60
2010,08,23,07,37,8.80
2010,08,23,07,38,8.90
2010,08,23,07,39,9.00
2010,08,23,07,40,9.10
2010,08,23,07,41,9.30
2010,08,23,07,42,9.40
2010,08,23,07,43,9.40
2010,08,23,07,44,9.50
2010,08,23,07,45,9.60
2010,08,23,07,46,9.70
2010,08,23,07,47,9.80
2010,08,23,07,48,10.00
2010,08,23,07,49,10.10
2010,08,23,07,50,10.20
2010,08,23,07,51,10.30
2010,08,23,07,52,10.40
2010,08,23,07,53,10.50
2010,08,23,07,54,10.60
2010,08,23,07,55,10.60
2010,08,23,07,56,10.70
2010,08,23,07,57,10.70
2010,08,23,07,58,10.80
2010,08,23,07,59,10.80
2010,08,23,08,00,10.80
2010,08,23,08,01,10.80
2010,08,23,08,02,10.80
2010,08,23,08,03,10.80
2010,08,23,08,04,10.80
2010,08,23,08,05,10.80
2010,08,23,08,06,10.80
2010,08,23,08,07,10.80
2010,08,23,08,08,10.90
2010,08,23,08,09,10.90
2010,08,23,08,10,11.00
2010,08,23,08,11,11.10
2010,08,23,08,12,11.20
2010,08,23,08,13,11.30
2010,08,23,08,14,11.50
2010,08,23,08,15,11.60
2010,08,23,08,16,11.70
2010,08,23,08,17,11.70
2010,08,23,08,18,11.80
2010,08,23,08,19,11.90
2010,08,23,08,20,11.90
2010,08,23,08,21,12.00
2010,08,23,08,22,12.00
2010,08,23,08,23,12.10
2010,08,23,08,24,12.20
2010,08,23,08,25,12.20
2010,08,23,08,26,12.30
2010,08,23,08,27,12.40
2010,08,23,08,28,12.50
2010,08,23,08,29,12.50
2010,08,23,08,30,12.70
2010,08,23,08,31,12.80
2010,08,23,08,32,12.90
2010,08,23,08,33,12.90
2010,08,23,08,34,13.00
2010,08,23,08,35,13.10
2010,08,23,08,36,13.10
2010,08,23,08,37,13.20
2010,08,23,08,38,13.30
2010,08,23,08,39,13.30
2010,08,23,08,40,13.40
2010,08,23,08,41,13.50
2010,08,23,08,42,13.60
2010,08,23,08,43,13.70
2010,08,23,08,44,13.80
2010,08,23,08,45,13.90
2010,08,23,08,46,14.00
2010,08,23,08,47,14.10
2010,08,23,08,48,14.10
2010,08,23,08,49,14.20
2010,08,23,08,50,14.30
2010,08,23,08,51,14.30
2010,08,23,08,52,14.30
2010,08,23,08,53,14.30
2010,08,23,08,54,14.40
2010,08,23,08,55,14.50
2010,08,23,08,56,14.60
2010,08,23,08,57,14.60
2010,08,23,08,58,14.60
2010,08,23,08,59,14.60
2010,08,23,09,00,14.70
2010,08,23,09,01,14.80
2010,08,23,09,02,14.90
2010,08,23,09,03,15.00
2010,08,23,09,04,15.00
2010,08,23,09,05,15.10
2010,08,23,09,06,15.30
2010,08,23,09,07,15.40
2010,08,23,09,08,15.40
2010,08,23,09,09,15.50
2010,08,23,09,10,15.60
2010,08,23,09,11,15.60
2010,08,23,09,12,15.60
2010,08,23,09,13,15.70
2010,08,23,09,14,15.70
2010,08,23,09,15,15.80
2010,08,23,09,16,15.90
2010,08,23,09,17,16.00
2010,08,23,09,18,16.10
2010,08,23,09,19,16.20
2010,08,23,09,20,16.20
2010,08,23,09,21,16.30
2010,08,23,09,22,16.30
2010,08,23,09,23,16.30
2010,08,23,09,24,16.20
2010,08,23,09,25,16.10
2010,08,23,09,26,16.10
2010,08,23,09,27,16.10
2010,08,23,09,28,16.10
2010,08,23,09,29,16.10
2010,08,23,09,30,16.10
2010,08,23,09,31,16.20
2010,08,23,09,32,16.20
2010,08,23,09,33,16.30
2010,08,23,09,34,16.30
2010,08,23,09,35,16.30
2010,08,23,09,36,16.30
2010,08,23,09,37,16.30
2010,08,23,09,38,16.30
2010,08,23,09,39,16.40
2010,08,23,09,40,16.40
2010,08,23,09,41,16.50
2010,08,23,09,42,16.40
2010,08,23,09,43,16.40
2010,08,23,09,44,16.40
2010,08,23,09,45,16.40
2010,08,23,09,46,16.40
2010,08,23,09,47,16.50
2010,08,23,09,48,16.60
2010,08,23,09,49,16.60
2010,08,23,09,50,16.70
2010,08,23,09,51,16.70
2010,08,23,09,52,16.80
2010,08,23,09,53,16.80
2010,08,23,09,54,16.80
2010,08,23,09,55,16.90
2010,08,23,09,56,16.90
2010,08,23,09,57,16.90
2010,08,23,09,58,16.80
2010,08,23,09,59,16.80
2010,08,23,10,00,16.70
2010,08,23,10,01,16.60
2010,08,23,10,02,16.60
2010,08,23,10,03,16.50
2010,08,23,10,04,16.50
2010,08,23,10,05,16.50
2010,08,23,10,06,16.50
2010,08,23,10,07,16.50
2010,08,23,10,08,16.50
2010,08,23,10,09,16.50
2010,08,23,10,10,16.60
2010,08,23,10,11,16.70
2010,08,23,10,12,16.70
2010,08,23,10,13,16.60
2010,08,23,10,14,16.60
2010,08,23,10,15,16.60
2010,08,23,10,16,16.60
2010,08,23,10,17,16.60
2010,08,23,10,18,16.60
2010,08,23,10,19,16.60
2010,08,23,10,20,16.60
2010,08,23,10,21,16.60
2010,08,23,10,22,16.70
2010,08,23,10,23,16.80
2010,08,23,10,24,16.80
2010,08,23,10,25,16.80
2010,08,23,10,26,16.80
2010,08,23,10,27,16.80
2010,08,23,10,28,16.80
2010,08,23,10,29,16.90
2010,08,23,10,30,17.00
2010,08,23,10,31,17.10
2010,08,23,10,32,17.10
2010,08,23,10,33,17.10
2010,08,23,10,34,17.10
2010,08,23,10,35,17.10
2010,08,23,10,36,17.10
2010,08,23,10,37,17.10
2010,08,23,10,38,17.10
2010,08,23,10,39,17.20
2010,08,23,10,40,17.20
2010,08,23,10,41,17.10
2010,08,23,10,42,17.20
2010,08,23,10,43,17.20
2010,08,23,10,44,17.20
2010,08,23,10,45,17.20
2010,08,23,10,46,17.30
2010,08,23,10,47,17.20
2010,08,23,10,48,17.20
2010,08,23,10,49,17.10
2010,08,23,10,50,17.00
2010,08,23,10,51,17.00
2010,08,23,10,52,17.00
2010,08,23,10,53,17.10
2010,08,23,10,54,17.20
2010,08,23,10,55,17.20
2010,08,23,10,56,17.20
2010,08,23,10,57,17.20
2010,08,23,10,58,17.30
2010,08,23,10,59,17.30
2010,08,23,11,00,17.40
2010,08,23,11,01,17.50
2010,08,23,11,02,17.50
2010,08,23,11,03,17.60
2010,08,23,11,04,17.60
2010,08,23,11,05,17.70
2010,08,23,11,06,17.70
2010,08,23,11,07,17.70
2010,08,23,11,08,17.70
2010,08,23,11,09,17.60
2010,08,23,11,10,17.60
2010,08,23,11,11,17.60
2010,08,23,11,12,17.50
2010,08,23,11,13,17.40
2010,08,23,11,14,17.30
2010,08,23,11,15,17.40
2010,08,23,11,16,17.40
2010,08,23,11,17,17.40
2010,08,23,11,18,17.50
2010,08,23,11,19,17.60
2010,08,23,11,20,17.80
2010,08,23,11,21,18.00
2010,08,23,11,22,18.10
2010,08,23,11,23,18.00
2010,08,23,11,24,18.20
2010,08,23,11,25,18.30
2010,08,23,11,26,18.30
2010,08,23,11,27,18.20
2010,08,23,11,28,18.20
2010,08,23,11,29,18.20
2010,08,23,11,30,18.10
2010,08,23,11,31,18.10
2010,08,23,11,32,18.10
2010,08,23,11,33,18.00
2010,08,23,11,34,17.90
2010,08,23,11,35,17.80
2010,08,23,11,36,17.80
2010,08,23,11,37,17.80
2010,08,23,11,38,17.80
2010,08,23,11,39,17.80
2010,08,23,11,40,17.90
2010,08,23,11,41,18.00
2010,08,23,11,42,18.00
2010,08,23,11,43,18.10
2010,08,23,11,44,18.20
2010,08,23,11,45,18.20
2010,08,23,11,46,18.20
2010,08,23,11,47,18.10
2010,08,23,11,48,18.10
2010,08,23,11,49,18.10
2010,08,23,11,50,18.20
2010,08,23,11,51,18.20
2010,08,23,11,52,18.20
2010,08,23,11,53,18.20
2010,08,23,11,54,18.30
2010,08,23,11,55,18.30
2010,08,23,11,56,18.30
2010,08,23,11,57,18.20
2010,08,23,11,58,18.20
2010,08,23,11,59,18.10
2010,08,23,12,00,18.10
2010,08,23,12,01,18.10
2010,08,23,12,02,18.20
2010,08,23,12,03,18.20
2010,08,23,12,04,18.20
2010,08,23,12,05,18.30
2010,08,23,12,06,18.30
2010,08,23,12,07,18.40
2010,08,23,12,08,18.50
2010,08,23,12,09,18.40
2010,08,23,12,10,18.40
2010,08,23,12,11,18.30
2010,08,23,12,12,18.20
2010,08,23,12,13,18.20
2010,08,23,12,14,18.30
2010,08,23,12,15,18.20
2010,08,23,12,16,18.20
2010,08,23,12,17,18.30
2010,08,23,12,18,18.40
2010,08,23,12,19,18.50
2010,08,23,12,20,18.60
2010,08,23,12,21,18.50
2010,08,23,12,22,18.40
2010,08,23,12,23,18.20
2010,08,23,12,24,18.20
2010,08,23,12,25,18.20
2010,08,23,12,26,18.20
2010,08,23,12,27,18.20
2010,08,23,12,28,18.20
2010,08,23,12,29,18.20
2010,08,23,12,30,18.40
2010,08,23,12,31,18.30
2010,08,23,12,32,18.30
2010,08,23,12,33,18.30
2010,08,23,12,34,18.20
2010,08,23,12,35,18.20
2010,08,23,12,36,18.20
2010,08,23,12,37,18.20
2010,08,23,12,38,18.20
2010,08,23,12,39,18.30
2010,08,23,12,40,18.40
2010,08,23,12,41,18.50
2010,08,23,12,42,18.60
2010,08,23,12,43,18.70
2010,08,23,12,44,18.80
2010,08,23,12,45,18.70
2010,08,23,12,46,18.70
2010,08,23,12,47,18.80
2010,08,23,12,48,19.00
2010,08,23,12,49,18.90
2010,08,23,12,50,18.90
2010,08,23,12,51,18.90
2010,08,23,12,52,18.90
2010,08,23,12,53,18.90
2010,08,23,12,54,18.90
2010,08,23,12,55,18.90
2010,08,23,12,56,19.00
2010,08,23,12,57,19.00
2010,08,23,12,58,19.00
2010,08,23,12,59,18.90
2010,08,23,13,00,18.70
2010,08,23,13,01,18.60
2010,08,23,13,02,18.60
2010,08,23,13,03,18.50
2010,08,23,13,04,18.50
2010,08,23,13,05,18.60
2010,08,23,13,06,18.80
2010,08,23,13,07,18.90
2010,08,23,13,08,19.10
2010,08,23,13,09,19.20
2010,08,23,13,10,19.30
2010,08,23,13,11,19.30
2010,08,23,13,12,19.20
2010,08,23,13,13,19.20
2010,08,23,13,14,19.20
2010,08,23,13,15,19.20
2010,08,23,13,16,19.20
2010,08,23,13,17,19.20
2010,08,23,13,18,19.20
2010,08,23,13,19,19.20
2010,08,23,13,20,19.30
2010,08,23,13,21,19.30
2010,08,23,13,22,19.40
2010,08,23,13,23,19.30
2010,08,23,13,24,19.30
2010,08,23,13,25,19.40
2010,08,23,13,26,19.30
2010,08,23,13,27,19.30
2010,08,23,13,28,19.30
2010,08,23,13,29,19.30
2010,08,23,13,30,19.20
2010,08,23,13,31,19.20
2010,08,23,13,32,19.20
2010,08,23,13,33,19.30
2010,08,23,13,34,19.30
2010,08,23,13,35,19.30
2010,08,23,13,36,19.30
2010,08,23,13,37,19.40
2010,08,23,13,38,19.60
2010,08,23,13,39,19.70
2010,08,23,13,40,19.70
2010,08,23,13,41,19.70
2010,08,23,13,42,19.80
2010,08,23,13,43,19.80
2010,08,23,13,44,19.70
2010,08,23,13,45,19.60
2010,08,23,13,46,19.60
2010,08,23,13,47,19.70
2010,08,23,13,48,19.70
2010,08,23,13,49,19.80
2010,08,23,13,50,19.70
2010,08,23,13,51,19.60
2010,08,23,13,52,19.60
2010,08,23,13,53,19.70
2010,08,23,13,54,19.70
2010,08,23,13,55,19.60
2010,08,23,13,56,19.60
2010,08,23,13,57,19.60
2010,08,23,13,58,19.60
2010,08,23,13,59,19.50
2010,08,23,14,00,19.50
2010,08,23,14,01,19.60
2010,08,23,14,02,19.70
2010,08,23,14,03,19.80
2010,08,23,14,04,19.80
2010,08,23,14,05,19.90
2010,08,23,14,06,19.90
2010,08,23,14,07,19.80
2010,08,23,14,08,19.80
2010,08,23,14,09,19.80
2010,08,23,14,10,19.70
2010,08,23,14,11,19.60
2010,08,23,14,12,19.40
2010,08,23,14,13,19.50
2010,08,23,14,14,19.40
2010,08,23,14,15,19.30
2010,08,23,14,16,19.30
2010,08,23,14,17,19.20
2010,08,23,14,18,19.10
2010,08,23,14,19,19.00
2010,08,23,14,20,18.90
2010,08,23,14,21,18.90
2010,08,23,14,22,19.00
2010,08,23,14,23,19.20
2010,08,23,14,24,19.20
2010,08,23,14,25,19.40
2010,08,23,14,26,19.70
2010,08,23,14,27,19.80
2010,08,23,14,28,20.00
2010,08,23,14,29,20.10
2010,08,23,14,30,20.20
2010,08,23,14,31,20.40
2010,08,23,14,32,20.50
2010,08,23,14,33,20.60
2010,08,23,14,34,20.50
2010,08,23,14,35,20.30
2010,08,23,14,36,20.30
2010,08,23,14,37,20.30
2010,08,23,14,38,20.10
2010,08,23,14,39,20.10
2010,08,23,14,40,20.10
2010,08,23,14,41,20.20
2010,08,23,14,42,20.20
2010,08,23,14,43,20.20
2010,08,23,14,44,20.20
2010,08,23,14,45,20.30
2010,08,23,14,46,20.30
2010,08,23,14,47,20.30
2010,08,23,14,48,20.30
2010,08,23,14,49,20.30
2010,08,23,14,50,20.20
2010,08,23,14,51,20.10
2010,08,23,14,52,20.10
2010,08,23,14,53,20.10
2010,08,23,14,54,20.10
2010,08,23,14,55,20.20
2010,08,23,14,56,20.20
2010,08,23,14,57,20.20
2010,08,23,14,58,20.30
2010,08,23,14,59,20.40
2010,08,23,15,00,20.50
2010,08,23,15,01,20.50
2010,08,23,15,02,20.50
2010,08,23,15,03,20.40
2010,08,23,15,04,20.30
2010,08,23,15,05,20.20
2010,08,23,15,06,20.20
2010,08,23,15,07,20.20
2010,08,23,15,08,20.20
2010,08,23,15,09,20.30
2010,08,23,15,10,20.30
2010,08,23,15,11,20.30
2010,08,23,15,12,20.20
2010,08,23,15,13,20.20
2010,08,23,15,14,20.10
2010,08,23,15,15,20.10
2010,08,23,15,16,20.10
2010,08,23,15,17,20.10
2010,08,23,15,18,20.10
2010,08,23,15,19,20.20
2010,08,23,15,20,20.20
2010,08,23,15,21,20.20
2010,08,23,15,22,20.20
2010,08,23,15,23,20.20
2010,08,23,15,24,20.30
2010,08,23,15,25,20.50
2010,08,23,15,26,20.60
2010,08,23,15,27,20.60
2010,08,23,15,28,20.50
2010,08,23,15,29,20.40
2010,08,23,15,30,20.30
2010,08,23,15,31,20.30
2010,08,23,15,32,20.30
2010,08,23,15,33,20.40
2010,08,23,15,34,20.50
2010,08,23,15,35,20.60
2010,08,23,15,36,20.60
2010,08,23,15,37,20.50
2010,08,23,15,38,20.50
2010,08,23,15,39,20.50
2010,08,23,15,40,20.60
2010,08,23,15,41,20.60
2010,08,23,15,42,20.70
2010,08,23,15,43,20.70
2010,08,23,15,44,20.80
2010,08,23,15,45,20.90
2010,08,23,15,46,20.80
2010,08,23,15,47,20.70
2010,08,23,15,48,20.60
2010,08,23,15,49,20.50
2010,08,23,15,50,20.50
2010,08,23,15,51,20.40
2010,08,23,15,52,20.50
2010,08,23,15,53,20.70
2010,08,23,15,54,20.70
2010,08,23,15,55,20.70
2010,08,23,15,56,20.60
2010,08,23,15,57,20.60
2010,08,23,15,58,20.50
2010,08,23,15,59,20.40
2010,08,23,16,00,20.20
2010,08,23,16,01,20.10
2010,08,23,16,02,20.20
2010,08,23,16,03,20.10
2010,08,23,16,04,20.00
2010,08,23,16,05,20.00
2010,08,23,16,06,19.90
2010,08,23,16,07,19.90
2010,08,23,16,08,19.90
2010,08,23,16,09,19.80
2010,08,23,16,10,19.70
2010,08,23,16,11,19.70
2010,08,23,16,12,19.70
2010,08,23,16,13,19.80
2010,08,23,16,14,19.90
2010,08,23,16,15,19.90
2010,08,23,16,16,19.80
2010,08,23,16,17,19.80
2010,08,23,16,18,19.80
2010,08,23,16,19,19.70
2010,08,23,16,20,19.80
2010,08,23,16,21,19.90
2010,08,23,16,22,20.10
2010,08,23,16,23,20.20
2010,08,23,16,24,20.30
2010,08,23,16,25,20.20
2010,08,23,16,26,20.10
2010,08,23,16,27,20.20
2010,08,23,16,28,20.20
2010,08,23,16,29,20.30
2010,08,23,16,30,20.40
2010,08,23,16,31,20.40
2010,08,23,16,32,20.40
2010,08,23,16,33,20.30
2010,08,23,16,34,20.40
2010,08,23,16,35,20.50
2010,08,23,16,36,20.60
2010,08,23,16,37,20.60
2010,08,23,16,38,20.70
2010,08,23,16,39,20.80
2010,08,23,16,40,20.80
2010,08,23,16,41,20.80
2010,08,23,16,42,20.80
2010,08,23,16,43,20.80
2010,08,23,16,44,20.80
2010,08,23,16,45,20.90
2010,08,23,16,46,20.90
2010,08,23,16,47,20.90
2010,08,23,16,48,20.90
2010,08,23,16,49,20.90
2010,08,23,16,50,20.90
2010,08,23,16,51,21.00
2010,08,23,16,52,21.10
2010,08,23,16,53,21.10
2010,08,23,16,54,21.00
2010,08,23,16,55,20.90
2010,08,23,16,56,20.80
2010,08,23,16,57,20.70
2010,08,23,16,58,20.70
2010,08,23,16,59,20.70
2010,08,23,17,00,20.70
2010,08,23,17,01,20.70
2010,08,23,17,02,20.70
2010,08,23,17,03,20.70
2010,08,23,17,04,20.80
2010,08,23,17,05,20.80
2010,08,23,17,06,20.90
2010,08,23,17,07,20.90
2010,08,23,17,08,20.90
2010,08,23,17,09,20.90
2010,08,23,17,10,20.90
2010,08,23,17,11,20.80
2010,08,23,17,12,20.80
2010,08,23,17,13,20.70
2010,08,23,17,14,20.70
2010,08,23,17,15,20.60
2010,08,23,17,16,20.70
2010,08,23,17,17,20.70
2010,08,23,17,18,20.70
2010,08,23,17,19,20.60
2010,08,23,17,20,20.60
2010,08,23,17,21,20.60
2010,08,23,17,22,20.70
2010,08,23,17,23,20.60
2010,08,23,17,24,20.50
2010,08,23,17,25,20.40
2010,08,23,17,26,20.20
2010,08,23,17,27,19.90
2010,08,23,17,28,19.80
2010,08,23,17,29,19.70
2010,08,23,17,30,19.60
2010,08,23,17,31,19.60
2010,08,23,17,32,19.70
2010,08,23,17,33,19.70
2010,08,23,17,34,19.70
2010,08,23,17,35,19.80
2010,08,23,17,36,19.80